Location: Fiddletown
(38.4917°N, 120.6633°W)
Time: 06:39:16
(UTC-07:00)

Envisat - Visible Passes

Search period start: 01 September 2014 00:00
Search period end: 11 September 2014 00:00
Orbit: 765 x 767 km, 98.4° (Epoch: 01 September)

Date Brightness Start Highest point End Pass type
(mag) Time Alt. Az. Time Alt. Az. Time Alt. Az.
01 Sep 4.1 21:37:34 30° NE 21:37:34 30° NE 21:41:18 10° N visible
01 Sep 5.1 23:17:47 22° WNW 23:17:47 22° WNW 23:20:12 10° NW visible
02 Sep 4.8 21:00:42 14° ENE 21:00:44 14° ENE 21:03:24 10° NNE visible
02 Sep 4.2 22:40:55 40° NW 22:40:55 40° NW 22:44:13 10° NNW visible
03 Sep 3.8 22:04:04 41° NNE 22:04:04 41° NNE 22:07:37 10° N visible
03 Sep 5.7 23:44:17 12° WNW 23:44:17 12° WNW 23:45:03 10° NW visible
04 Sep 4.4 21:27:12 24° NE 21:27:12 24° NE 21:30:27 10° NNE visible
04 Sep 5.0 23:07:26 25° NW 23:07:26 25° NW 23:09:51 10° NNW visible
05 Sep 5.0 20:50:21 11° ENE 20:50:21 11° ENE 20:51:53 10° NE visible
05 Sep 4.2 22:30:34 38° NNW 22:30:34 38° NNW 22:33:40 10° NNW visible
06 Sep 4.1 21:53:43 33° NNE 21:53:43 33° NNE 21:56:55 10° N visible
06 Sep 5.7 23:33:56 14° WNW 23:33:56 14° WNW 23:35:01 10° NW visible
07 Sep 4.6 21:16:51 19° NE 21:16:51 19° NE 21:19:31 10° NNE visible
07 Sep 4.9 22:57:05 26° NW 22:57:05 26° NW 22:59:26 10° NNW visible
08 Sep 4.3 22:20:13 34° N 22:20:13 34° N 22:23:04 10° N visible
09 Sep 4.4 21:43:22 27° NNE 21:43:22 27° NNE 21:46:10 10° N visible
09 Sep 5.6 23:23:35 16° NW 23:23:35 16° NW 23:24:49 10° NW visible
10 Sep 4.9 21:06:30 15° NE 21:06:30 15° NE 21:08:28 10° NNE visible
10 Sep 4.9 22:46:44 26° NNW 22:46:44 26° NNW 22:48:57 10° NNW visible
